Погода Сумы

Хотите узнать прогноз погоды Сумы? Тогда Вам сюда: Погода Сумы

Поиск расширенной информации на нашем сайте:

Полезная информация:

Новости сайта



02.01.2020
Опубликован Долгосрочный прогноз погоды по городам России и ближнего зарубежья на январь 2020 года.
Карты: Прогноз на январь и февраль 2020 года, Сравнение прогнозируемой аномалии приземной температуры воздуха на январь 2020 года по разным моделям.




Погода Сумы - сегодня

Время (UTC), дата Ветер
(°,м/с) 
Видим.   Явления Облачность Т
(°С)
Тd
(°С)
f(%) Тe
(°С)
Pmin
(гПа)
dP
(гПа)
Po
(мм)
O2
(г/м3)
Тmin Tmax R s Состояние
почвы
03 03.03.21 300 (СЗ) 10 км    ясно 
-0.5 -2.6 86 -3  1019.8  1.1  748  302           
06 03.03.21 310 (СЗ) 10 км    ясно 
-0.1 -3.4 78 -3  1021.6  1.8  749  302  -0.6    0.2  равномерный
сухой снег
100% 
09 03.03.21 330 (СЗ) 10 км    ясно 
+2.1 -6.7 52 -1  1023.1  1.7  750  301           
12 03.03.21 310 (СЗ) 10 км    ясно 
+3.5 -6.7 47 +1  1023.4  0.4  751  299           
15 03.03.21 270 (З) 10 км    ясно 
+3.1 -3 64 +1  1022.8  -0.6  750  299           
18 03.03.21 240 (ЮЗ) 10 км    ясно 
+0.3 -3 78 -2  1022.7  -0.4  750  302    +4.2       
21 03.03.21 240 (ЮЗ) 10 км    ясно 
-0.2 -2.6 84 -3  1021.2  -1.5  749  302           
00 04.03.21 240 (ЮЗ) 10 км    ясно 
-1 -3.2 85 -4  1019.7  -1.5  748  303           
03 04.03.21 220 (ЮЗ) 10 км    ясно 
-2 -3.5 89 -5  1017.2  -2.5  746  303           
06 04.03.21 190 (Ю) 4000 м  дымка  4/4 300 м 
[St]
-2.5 -3.1 96 -5  1014.3  -2.9  743  303  -3      <0.5  мокрый или
старый снег
50-90% 
09 04.03.21 220 (ЮЗ) 10 км    ясно 
+2.9 -0.9 76 1011  -2.8  741  296           
15 04.03.21 220 (ЮЗ) 10 км    8/0 верхняя 
[Ci fib]
+5.9 +0.6 69 +4  1005.9  -2.5  738  291           
18 04.03.21 230 (ЮЗ) 10 км    10/0 средняя, верхняя 
[Ac trans|Ci fib]
+4.1 +0.7 78 +1  1005.5  -0.6  737  293    +6.9       
21 04.03.21 270 (З) 10 км    10/0 средняя 
[Ac und]
+3.4 +1.1 85 +1  1006.1  0.6  738  293           
00 05.03.21 300 (СЗ) 10 км    10/8 480 м средняя 
[Sc|Ac und]
+1.4 -0.2 89 -1  1007.5  1.2  739  296           
03 05.03.21 290 (З) 10 км    10/8 800 м средняя 
[Sc|Ac und]
+0.5 -0.9 90 -1  1008.6  740  297           
06 05.03.21 290 (З) 10 км    8/6 800 м средняя 
[Sc|Ac trans]
+0.3 -0.5 94 -1  1010.4  1.7  741  298  +0.1      мокрый или
старый снег
10-40% 
09 05.03.21 290 (З) 10 км    9/5 840 м средняя 
[Sc|Ac trans]
+1.5 -1.9 78 -1  1011.7  1.4  742  297           
12 05.03.21 310 (СЗ) 10 км    8/8 900 м 
[Sc]
+2.3 -3.3 66 +1  1012.2  0.5  742  297           
15 05.03.21 330 (СЗ) 10 км    4/4 1000 м 
[Sc]
+1.5 -5.4 60 +1  1013.8  1.5  743  298           
18 05.03.21 330 (СЗ) 10 км    6/0 средняя 
[Ac trans]
-0.1 -4.7 71 +1  1015.6  1.7  745  301    +2.5       
21 05.03.21 350 (С) 10 км    4/0 средняя 
[Ac trans]
-2.1 -5.6 77 -3  1016.7  0.9  745  303           
03 06.03.21 300 (СЗ) 10 км    8/0 средняя 
[Ac trans]
-2.2 -5 81 -3  1017.7  0.2  746  304           
06 06.03.21 320 (СЗ) 10 км  в посл. час ливневой снег  6/4 600 м кучево-дожд., средняя 
[Cb calv|Ac trans]
-2.7 -6.1 77 -5  1019.1  1.4  747  305  -2.9    0.2  <0.5  равномерный
сухой снег
100% 
09 06.03.21 300 (СЗ) 10 км    6/6 600 м 
[Cu med, cong]
-1.9 -6.5 71 -6  1020.2  1.1  748  304           
Время (UTC), дата Ветер
(°,м/с) 
Видим.   Явления Облачность Т
(°С)
Тd
(°С)
f(%) Тe
(°С)
Pmin
(гПа)
dP
(гПа)
Po
(мм)
O2
(г/м3)
Тmin Tmax R s Состояние
почвы

Для получения пояснительной информации подведите курсор к названию столбца.

ПОГОДА Сумы - архив

Всё, что Вы хотите узнать о погоде Сумы - удобно и подробно!

Выберите нужную дату (начиная с 1 января 2019* года) и нажмите кнопку "Найти".
Будут отображены архивные сводки погоды по пункту Сумы, начиная с указанной даты.


Отображать данные в формате CSV (для использования в таблицах Excel)


Внимание! Наш архив погоды предназначен исключительно для личного некоммерческого использования в познавательных целях. Если Вам необходимы официальные справки о состоянии погоды (для производственных, юридических, коммерческих и т.п. целей), обращайтесь в органы Росгидромета.

*Примечание: данная дата относится к архиву по метеостанциям СССР (Россия, СНГ, Балтия).
Архив по метеостанциям Зарубежной Европы и Азии (кроме Китая) хранится 10 дней, по другим регионам земного шара (Китай, Африка, Америка, Австралия, Океания) - 1 день.

Сумы - район местоположения метеостанции


Название, широта, долгота, высота метеостанции:
Сумы 50.9°ш. 34.7°д. 181 м над ур. моря [Украина]

Дополнительная информация

В oтличие oт бoльшинства пoгoдных сайтoв мы публикуем пoдрoбную метеoинфoрмацию в детальнoм прoфессиoнальнoм фoрмате.

Характеристики температуры и влажнoсти вoздуха измеряются на высoте 2 м в тени вдали oт зданий и деревьев.
Скoрoсть ветра измеряется на высoте 10 м (на урoвне рoста челoвека скoрoсть ветра ниже в 1.5-2 раза). Если метеoстанция нахoдится в гoрoде или в лесу, тo скoрoсть ветра занижена на 2-4 м/с пo сравнению с oткрытым местoм. Скoрoсть ветра над акватoриями крупных рек и oзёр, а также на вершинах хoлмoв на 2-5 м/с выше, чем в oбычных услoвиях.
Атмoсфернoе давление в разных тoчках местнoсти мoжет значительнo oтличаться oт давления на метеoстанции, в зависимoсти oт услoвий рельефа (при пoдъёме на 10 м давление пoнижается примернo на 1 мм рт.ст.).